Погода в Высоком

Украина / Запорожская область     47°13′53″N   35°24′20″E
темп.,
°C
ветер,
м/с
пор.,
м/с
влажн.,
%
обл.,
%
осадки,
мм/ч
давл.,
гПа
погр.,
м
22 апреля, чт
чт2200:00+8юз37915 0.1 1019144
03:00+7юз33915 0.1 102045
06:00+6ююз22925 0.0 102134
09:00+11ююз33735 0.0 1022505
12:00+15ююз335514 0.1 10221446
15:00+17юз3444100 0.6 10212201
18:00+13ю5870100 0.4 1021302
21:00+10ю488013 0.6 1022231
23 апреля, пт
пт2300:00+8юз36885 0.0 1022100
03:00+7ююз33890 0.0 102241
06:00+7ю34902 0.0 102266
09:00+13ю57639 0.0 1021572
12:00+16ю784888 0.0 10201503
15:00+17ю784562 0.0 10181769
18:00+15ю785891 0.0 1017691
21:00+10ю51079100 0.3 1017331
24 апреля, сб
сб2400:00+10зюз4979100 0.4 1016366
03:00+9зюз498796 0.4 1016496
06:00+7сз588999 0.7 1017548
09:00+9сз57670 0.7 1018921
12:00+13зсз710445 0.0 10192144
15:00+14зсз81136100 0.0 10182741
18:00+10зсз912565 0.1 10201555
21:00+6зсз38555 0.1 1022163
25 апреля, вс
вс2500:00+5зсз345751 0.0 102263
03:00+4зсз356529 0.0 102377
06:00+3зсз337266 0.0 102338
09:00+8зсз335026 0.0 1023994
12:00+11сз3436100 0.0 10221738
15:00+12ссз333461 0.0 10211655
18:00+12ссз1239100 0.0 1020956
21:00+7ю4553100 0.0 102072
26 апреля, пн
пн2600:00+5юз366710 0.0 1020102
03:00+5зюз366739 0.0 101997
06:00+4з3468100 0.0 101966
09:00+10зюз575076 0.0 1018708
12:00+8зсз7783100 0.1 1019728
15:00+12зсз584537 0.1 10181933
18:00+11зсз57421 0.0 10181864
21:00+7зюз445483 0.0 101858